Wind_Speed
2 2 2 2 2 1 1 2 2 2 3 2 3 3 4 4 4 3 3 3 2 3 3 3 3 3 3 3 3 2 2 2 3 2 3 3 3 2 2 2 2 2 2
4 3 3 3 3 2 2 2 2 2 2 2 3 3 3 3 3 3 3 2 2 2 2 3 3 3 4 4 3 3 3 3 3 3 3 3 2 2 2 2 2 2 2
4 3 3 4 4 3 2 2 2 2 3 3 3 3 3 3 3 3 3 3 2 2 2 2 3 3 3 3 3 3 3 2 2 3 2 2 1 1 1 1 1 1 1
5 4 4 4 4 3 2 2 2 2 2 2 2 3 3 3 4 3 3 3 2 2 2 2 2 2 2 3 3 3 2 2 2 2 1 1 1 0 1 1 0 0 1
6 4 4 4 4 4 3 3 3 2 2 2 2 3 3 3 4 4 3 3 2 1 1 2 2 2 2 2 2 2 2 2 2 1 1 1 1 0 0 1 1 1 1
6 5 5 4 4 4 4 3 3 3 2 2 3 3 4 4 4 4 4 3 3 2 2 2 2 2 2 2 2 2 1 1 1 2 2 1 1 1 1 2 2 3 3
7 6 5 5 5 5 4 4 3 3 3 3 3 4 4 4 4 4 4 3 3 3 2 3 3 2 3 3 2 2 2 2 2 1 1 1 1 1 2 2 3 3 3
7 6 6 6 6 5 5 4 4 4 4 4 4 4 4 5 5 5 4 4 4 4 3 4 4 4 4 4 4 3 3 3 2 2 2 2 2 2 2 2 3 3 3
7 7 6 6 6 6 6 5 5 4 5 5 5 5 5 5 6 5 5 5 5 5 5 5 5 6 6 5 4 5 4 3 4 4 4 4 4 4 4 4 4 4 4
7 7 6 6 6 7 7 6 6 6 5 6 6 5 6 6 6 6 6 6 6 7 6 6 6 6 6 6 6 6 6 5 5 6 6 6 6 6 6 6 6 6 6
8 7 7 7 7 7 7 6 6 6 7 7 7 6 7 7 7 7 8 8 8 8 8 8 8 8 8 7 7 7 7 7 7 7 7 8 8 8 8 8 8 9 9
8 7 7 7 7 7 7 7 6 7 8 8 8 8 8 8 8 9 9 10 10 10 10 10 9 9 9 9 9 9 9 9 9 9 9 9 10 10 10 10 10 11 11
8 8 7 7 7 7 7 7 7 8 9 9 10 10 10 10 10 10 10 10 11 11 11 11 10 11 11 11 11 10 10 11 11 11 11 11 11 11 11 11 12 12 13
8 8 7 7 7 8 8 8 8 9 10 11 11 11 11 11 12 12 12 12 12 12 12 12 12 12 13 13 13 13 13 13 13 13 13 13 13 13 13 13 13 14 14
7 7 8 8 8 8 9 9 10 10 11 12 13 13 13 13 13 14 14 14 14 14 14 14 13 14 13 14 15 15 15 15 15 15 15 15 15 15 15 15 15 15 16
8 7 8 8 9 10 10 10 11 12 12 13 13 13 14 14 15 15 16 16 16 15 15 15 15 14 15 15 16 16 16 16 16 15 16 16 17 17 17 17 17 18 18
9 8 9 9 9 10 11 11 11 11 12 13 13 14 14 15 15 16 16 16 17 17 16 16 16 16 17 17 17 17 17 18 18 17 18 18 19 19 19 20 20 20 21
9 9 9 10 10 10 11 12 12 12 12 12 13 13 14 15 16 16 16 17 17 18 18 17 17 17 18 18 18 18 18 19 19 20 20 20 20 21 21 21 22 23 23
10 10 10 11 11 11 11 12 13 14 14 14 14 15 15 16 17 17 17 18 18 18 19 19 18 18 18 18 19 20 21 21 21 21 22 22 22 23 23 24 24 25 26
11 11 11 12 12 12 12 13 13 13 14 15 15 15 17 18 18 18 19 19 18 19 19 19 19 19 20 20 21 22 22 22 23 23 23 24 24 25 25 26 26 26 27
13 12 12 12 13 13 13 13 13 14 15 16 17 17 18 18 18 19 20 20 20 20 20 20 20 20 21 23 23 23 23 24 23 24 24 24 25 26 26 27 27 28 29
13 13 13 14 14 14 14 15 15 16 16 17 18 18 19 20 20 20 20 21 21 21 21 22 22 22 23 24 24 24 24 24 24 24 25 25 26 26 27 28 29 30 31
14 14 14 15 15 16 16 16 16 17 17 18 19 19 20 20 20 20 21 21 22 22 22 22 23 24 24 24 24 24 24 25 25 25 27 27 28 29 30 31 31 32 33
15 15 15 15 16 17 18 18 18 18 18 19 19 20 20 21 20 21 21 21 21 21 22 22 23 23 23 24 25 26 26 26 27 27 28 29 30 31 32 33 34 35 35
16 16 16 16 17 18 18 18 18 18 18 19 20 20 20 20 20 21 21 21 21 22 23 23 23 24 25 25 26 27 28 28 29 29 30 31 32 34 35 35 36 37 37
16 16 17 17 18 18 19 18 18 19 19 20 20 21 21 21 21 21 22 21 22 23 24 24 25 26 26 27 28 28 29 30 30 30 31 32 33 34 36 37 38 39 39
Wind_Direction
332 330 329 353 358 2 11 25 32 32 26 34 39 42 43 40 43 45 45 44 37 38 33 26 29 46 37 33 33 49 73 79 91 86 91 90 91 94 117 139 148 146 146
316 311 320 331 339 344 354 360 9 9 7 22 26 31 31 24 25 31 27 23 22 20 20 32 43 46 36 36 44 52 68 82 79 75 82 88 85 81 99 131 148 153 173
308 307 312 326 338 343 346 344 355 2 5 19 22 21 20 14 4 12 17 11 8 24 39 38 31 36 43 39 39 50 67 76 82 71 69 72 70 71 93 118 132 152 195
305 300 300 316 332 342 332 332 338 349 2 8 14 10 9 10 4 1 9 12 9 17 19 19 24 30 33 30 36 47 63 73 66 66 53 32 12 66 122 102 82 267 233
313 306 298 300 314 325 322 319 331 335 344 342 350 350 348 357 360 4 7 12 3 356 349 342 353 13 13 13 15 24 33 48 44 45 25 15 18 304 259 289 303 280 260
307 303 298 300 308 312 315 316 323 330 336 330 332 333 338 347 347 351 360 0 352 351 347 339 343 353 346 345 339 343 346 351 355 5 2 9 9 330 300 299 299 293 276
304 295 293 297 297 298 298 304 318 328 333 321 318 323 324 325 327 327 334 342 343 340 334 329 326 314 318 325 319 322 321 318 312 316 333 335 334 326 308 295 297 290 282
304 295 292 292 288 288 286 290 302 313 316 312 305 306 312 317 317 318 320 320 322 323 313 317 319 312 304 305 297 293 289 286 288 288 287 290 297 305 299 291 289 285 283
301 292 288 291 285 279 281 277 283 293 294 298 301 305 309 313 313 312 308 312 310 310 303 299 304 304 303 299 292 291 277 270 279 282 281 277 281 286 283 283 284 281 280
298 285 285 291 286 278 277 273 273 278 283 287 291 299 310 310 308 311 304 302 306 302 298 294 293 293 295 296 294 293 283 277 282 285 284 282 283 284 281 278 276 277 278
294 287 284 284 281 274 274 277 271 274 280 284 288 295 301 307 309 309 308 304 301 299 295 289 289 283 285 289 284 283 279 279 279 280 280 281 281 279 280 277 274 277 279
296 288 284 281 275 276 279 278 276 276 281 285 287 292 294 303 306 306 306 304 303 301 297 289 287 284 281 280 281 276 275 275 276 277 281 280 278 277 277 277 277 278 279
299 296 286 281 275 274 277 277 278 279 282 283 285 288 290 293 298 302 304 302 300 301 301 294 287 283 278 276 276 275 273 273 273 274 276 279 278 275 274 275 277 278 279
300 296 292 287 281 273 272 277 279 279 283 285 284 286 289 291 293 296 299 299 299 298 299 295 290 285 280 276 274 271 271 271 270 271 273 275 276 274 274 276 278 278 279
311 301 293 285 282 282 280 277 283 283 284 284 285 285 288 289 288 291 294 295 295 296 298 296 296 291 284 279 275 272 271 271 270 272 274 276 276 274 274 276 277 278 279
317 310 306 292 284 282 283 286 285 283 284 283 284 286 290 290 287 289 292 292 291 291 291 293 292 292 285 279 276 272 270 269 271 273 274 275 276 277 276 275 277 278 279
314 312 309 304 294 289 287 287 286 285 286 286 285 285 287 291 290 289 293 292 291 290 289 290 290 289 287 285 281 275 272 271 270 271 272 274 275 277 277 277 279 280 280
312 310 309 308 303 296 292 289 287 285 286 285 286 286 288 292 294 292 293 294 293 290 287 288 287 288 286 288 286 282 278 275 271 271 271 273 275 277 277 277 278 279 280
310 308 307 307 303 299 297 293 291 287 286 285 286 286 289 291 292 292 292 293 293 292 290 287 286 286 287 286 285 283 281 277 274 273 272 273 275 276 277 278 279 280 280
304 302 303 304 302 299 298 296 294 289 287 288 289 288 291 293 293 291 292 291 292 293 292 289 288 287 288 288 287 284 282 279 278 276 276 276 275 276 277 278 279 281 281
297 297 298 300 300 299 299 298 295 290 288 289 289 290 292 295 293 293 293 293 293 292 290 289 288 287 287 287 288 286 284 281 281 280 279 278 278 278 278 278 278 279 280
294 296 296 297 298 299 298 298 295 290 289 290 290 289 291 292 292 292 293 293 292 291 289 288 287 288 288 288 289 288 287 284 283 282 281 280 278 278 279 279 278 279 281
293 294 296 297 297 297 298 297 297 295 292 292 291 290 289 292 292 291 293 293 293 293 291 289 289 290 289 290 290 289 289 287 284 282 281 282 282 281 279 279 281 282 282
291 291 293 294 294 296 297 297 296 296 294 295 294 293 292 294 295 296 296 294 293 295 296 293 291 292 293 295 294 292 290 288 287 286 286 285 283 283 282 282 281 281 282
293 293 294 296 296 297 297 297 296 297 298 299 297 294 294 294 294 295 296 296 296 296 297 297 296 296 296 296 296 294 292 290 288 287 287 287 285 284 283 283 282 281 281
295 295 295 296 296 296 298 296 295 296 298 300 299 297 296 296 295 295 296 297 297 298 298 297 297 297 296 296 295 294 294 293 292 290 289 288 288 287 286 285 284 283 283
Height
5902 5902 5902 5902 5902 5902 5902 5902 5902 5902 5903 5902 5902 5902 5903 5903 5903 5902 5902 5902 5902 5902 5901 5901 5900 5900 5900 5900 5899 5899 5899 5899 5899 5899 5899 5899 5899 5900 5900 5900 5901 5901 5901
5903 5902 5903 5903 5903 5903 5903 5903 5903 5903 5903 5903 5903 5903 5903 5903 5903 5903 5903 5902 5902 5902 5902 5901 5901 5901 5900 5900 5900 5900 5899 5900 5900 5900 5899 5900 5900 5900 5900 5901 5901 5901 5901
5902 5903 5903 5903 5903 5903 5903 5903 5903 5903 5903 5903 5903 5903 5903 5903 5903 5903 5903 5902 5902 5902 5902 5902 5901 5901 5901 5901 5900 5900 5900 5900 5900 5900 5900 5900 5900 5900 5900 5901 5901 5901 5901
5902 5902 5903 5903 5903 5903 5903 5904 5903 5903 5903 5903 5903 5903 5903 5903 5903 5903 5903 5903 5903 5902 5902 5902 5902 5901 5901 5901 5901 5900 5900 5900 5900 5900 5900 5900 5900 5900 5900 5900 5901 5901 5900
5902 5902 5903 5903 5903 5903 5903 5904 5903 5903 5903 5903 5904 5903 5903 5903 5903 5903 5903 5903 5902 5902 5902 5902 5902 5902 5901 5901 5901 5901 5900 5900 5900 5900 5900 5900 5900 5900 5900 5900 5900 5900 5900
5902 5902 5902 5903 5903 5903 5904 5903 5903 5903 5904 5904 5904 5903 5903 5903 5903 5903 5903 5902 5902 5902 5902 5902 5902 5901 5901 5901 5901 5901 5900 5900 5900 5900 5900 5900 5899 5900 5899 5899 5899 5899 5899
5902 5902 5902 5902 5903 5903 5903 5903 5903 5904 5904 5904 5904 5904 5903 5903 5903 5903 5903 5902 5902 5902 5902 5902 5901 5901 5901 5900 5900 5900 5900 5900 5900 5900 5900 5899 5899 5899 5899 5899 5898 5898 5898
5901 5901 5901 5902 5902 5902 5903 5903 5903 5903 5904 5904 5904 5904 5903 5904 5903 5902 5902 5902 5902 5901 5901 5901 5901 5901 5900 5899 5899 5899 5899 5899 5899 5899 5899 5899 5899 5898 5898 5898 5897 5897 5897
5900 5900 5901 5901 5901 5902 5902 5902 5902 5903 5903 5903 5903 5903 5903 5902 5902 5901 5901 5901 5901 5900 5900 5900 5900 5900 5899 5898 5898 5898 5899 5898 5898 5898 5898 5898 5898 5897 5897 5897 5896 5896 5896
5899 5899 5900 5900 5900 5901 5901 5901 5901 5902 5902 5902 5902 5902 5902 5901 5901 5900 5900 5900 5899 5899 5898 5898 5898 5898 5898 5898 5898 5897 5897 5897 5897 5897 5897 5897 5896 5896 5896 5895 5895 5895 5894
5898 5898 5898 5899 5899 5899 5900 5900 5900 5901 5901 5901 5901 5901 5901 5900 5900 5899 5899 5898 5898 5897 5897 5897 5896 5896 5895 5896 5896 5895 5895 5896 5895 5895 5895 5894 5894 5894 5894 5893 5893 5892 5892
5896 5897 5897 5898 5898 5898 5898 5899 5899 5899 5899 5900 5899 5899 5899 5899 5898 5898 5897 5897 5896 5896 5895 5895 5894 5894 5894 5894 5893 5892 5893 5893 5893 5893 5893 5892 5892 5891 5891 5891 5890 5890 5889
5895 5895 5896 5896 5896 5897 5897 5897 5897 5898 5898 5898 5897 5897 5897 5897 5897 5896 5896 5895 5894 5894 5893 5892 5892 5891 5891 5891 5890 5890 5890 5890 5890 5890 5890 5889 5889 5888 5888 5888 5887 5887 5886
5894 5894 5895 5895 5895 5895 5895 5896 5896 5896 5896 5896 5895 5895 5895 5894 5894 5894 5893 5893 5892 5891 5890 5890 5889 5888 5888 5887 5888 5887 5887 5887 5887 5887 5886 5886 5885 5885 5885 5884 5884 5883 5883
5892 5893 5893 5893 5893 5893 5893 5893 5893 5893 5893 5893 5893 5892 5892 5891 5891 5891 5890 5890 5889 5888 5888 5887 5886 5885 5884 5884 5884 5884 5883 5883 5883 5883 5882 5882 5881 5881 5881 5880 5879 5879 5878
5891 5891 5891 5891 5891 5891 5891 5891 5891 5891 5890 5890 5890 5889 5889 5888 5888 5887 5887 5886 5885 5885 5884 5884 5883 5882 5881 5880 5879 5879 5879 5879 5878 5878 5878 5877 5877 5876 5876 5876 5875 5874 5873
5890 5890 5889 5889 5889 5888 5888 5888 5888 5887 5887 5887 5886 5886 5885 5885 5884 5884 5883 5882 5881 5881 5880 5880 5879 5878 5877 5876 5875 5875 5874 5874 5874 5873 5873 5873 5872 5871 5871 5870 5870 5869 5868
5888 5888 5887 5887 5886 5886 5885 5885 5885 5884 5884 5884 5883 5883 5882 5881 5881 5880 5879 5879 5878 5877 5876 5875 5874 5873 5872 5871 5870 5870 5870 5869 5869 5868 5868 5867 5867 5866 5865 5864 5864 5863 5862
5886 5885 5885 5884 5884 5883 5882 5882 5881 5881 5880 5880 5880 5879 5879 5878 5877 5876 5876 5875 5873 5872 5871 5871 5870 5869 5868 5867 5866 5865 5864 5863 5863 5863 5862 5861 5861 5860 5859 5858 5857 5856 5855
5883 5883 5883 5882 5881 5880 5880 5878 5877 5877 5877 5876 5876 5875 5875 5874 5873 5872 5871 5870 5869 5868 5867 5866 5865 5864 5863 5862 5861 5860 5858 5857 5857 5856 5856 5855 5854 5853 5852 5851 5850 5849 5847
5881 5880 5880 5879 5879 5878 5877 5875 5874 5874 5873 5873 5872 5871 5871 5870 5869 5868 5867 5866 5865 5863 5862 5861 5860 5859 5858 5856 5855 5853 5852 5851 5850 5849 5849 5848 5847 5846 5845 5843 5842 5841 5839
5878 5877 5877 5876 5875 5875 5874 5872 5871 5870 5869 5869 5868 5867 5866 5866 5864 5863 5862 5861 5860 5858 5856 5855 5854 5853 5852 5850 5848 5847 5846 5845 5844 5843 5841 5841 5840 5838 5837 5835 5834 5833 5831
5875 5874 5874 5873 5872 5871 5870 5869 5867 5867 5866 5865 5863 5862 5862 5860 5859 5858 5857 5855 5854 5852 5851 5850 5849 5847 5845 5844 5842 5841 5839 5838 5837 5835 5834 5833 5832 5830 5829 5827 5826 5824 5822
5871 5871 5870 5869 5868 5867 5866 5865 5864 5863 5861 5860 5859 5858 5857 5856 5854 5853 5851 5850 5848 5847 5846 5844 5843 5841 5839 5837 5836 5834 5832 5831 5829 5828 5826 5825 5823 5821 5819 5817 5816 5814 5812
5868 5867 5866 5865 5864 5863 5862 5861 5860 5858 5857 5856 5854 5853 5852 5851 5849 5848 5846 5845 5843 5842 5840 5838 5836 5835 5833 5831 5829 5827 5825 5823 5822 5820 5818 5815 5814 5811 5809 5807 5805 5803 5800
5864 5863 5862 5861 5860 5859 5858 5857 5855 5854 5853 5851 5850 5848 5847 5846 5844 5842 5841 5839 5838 5836 5834 5832 5830 5828 5826 5824 5822 5820 5817 5815 5813 5811 5809 5806 5803 5801 5799 5796 5793 5791 5789